^^
B2 Weather Station Historical Data
Daily Summary for April 3, 2019 Units:  English    Metric   Both
Daily Weekly Monthly Yearly Custom
  High: Low: Average:
Temperature: 59.1 °F 36.1 °F 48.2 °F
Dew Point: 40.4 °F 26.8 °F 33.8 °F
Humidity: 83% 34% 60%
Wind Speed: 16.1mph 0.0mph 5.1mph
Wind Gust: 9.5mph - -
Wind- - WSW
Pressure: 30.33 in 30.11 in -
Precipitation: 0.00 in    
Historical Graphs
 
 
Tabular Data for April 3, 2019
Time Temperature Dew Point Pressure Wind Wind Speed Wind Gust Humidity Rainfall Rate (Hourly) solar
00:04 41.0 °F 34.7 °F 30.11 in WSW 10.4 mph 4.3 mph 78% 0.00 in 0.00 W/m2
00:09 41.2 °F 34.5 °F 30.11 in WSW 9.2 mph 5.6 mph 77% 0.00 in 0.00 W/m2
00:14 41.4 °F 34.7 °F 30.11 in SW 10.4 mph 6.1 mph 77% 0.00 in 0.00 W/m2
00:19 41.5 °F 34.5 °F 30.11 in West 8.1 mph 3.9 mph 76% 0.00 in 0.00 W/m2
00:24 41.5 °F 34.5 °F 30.11 in WSW 6.9 mph 4.0 mph 76% 0.00 in 0.00 W/m2
00:29 41.6 °F 34.6 °F 30.11 in SW 9.2 mph 5.3 mph 76% 0.00 in 0.00 W/m2
00:34 41.7 °F 34.4 °F 30.11 in WSW 8.1 mph 5.8 mph 75% 0.00 in 0.00 W/m2
00:39 41.8 °F 34.1 °F 30.11 in SW 11.5 mph 6.7 mph 74% 0.00 in 0.00 W/m2
00:44 41.9 °F 34.2 °F 30.11 in SW 9.2 mph 6.6 mph 74% 0.00 in 0.00 W/m2
00:49 42.0 °F 34.0 °F 30.11 in West 11.0 mph 5.4 mph 73% 0.00 in 0.00 W/m2
00:54 42.0 °F 34.0 °F 30.11 in West 11.5 mph 6.5 mph 73% 0.00 in 0.00 W/m2
00:59 41.9 °F 33.9 °F 30.11 in WSW 10.4 mph 7.5 mph 73% 0.00 in 0.00 W/m2
01:04 41.8 °F 33.8 °F 30.11 in WSW 10.4 mph 6.4 mph 73% 0.00 in 0.00 W/m2
01:09 41.7 °F 33.7 °F 30.11 in SW 9.2 mph 8.1 mph 73% 0.00 in 0.00 W/m2
01:14 41.7 °F 33.7 °F 30.12 in WSW 9.2 mph 5.5 mph 73% 0.00 in 0.00 W/m2
01:19 41.6 °F 33.6 °F 30.12 in West 5.8 mph 4.9 mph 73% 0.00 in 0.00 W/m2
01:24 41.5 °F 33.5 °F 30.12 in SW 9.2 mph 5.2 mph 73% 0.00 in 0.00 W/m2
01:29 41.6 °F 33.6 °F 30.12 in NW 9.2 mph 6.6 mph 73% 0.00 in 0.00 W/m2
01:34 41.6 °F 33.6 °F 30.12 in West 9.2 mph 6.4 mph 73% 0.00 in 0.00 W/m2
01:39 41.6 °F 33.6 °F 30.12 in WNW 9.2 mph 3.7 mph 73% 0.00 in 0.00 W/m2
01:44 41.6 °F 33.6 °F 30.12 in West 8.1 mph 5.3 mph 73% 0.00 in 0.00 W/m2
01:49 41.6 °F 33.6 °F 30.12 in SW 10.4 mph 4.8 mph 73% 0.00 in 0.00 W/m2
01:54 41.5 °F 33.8 °F 30.12 in West 10.4 mph 6.0 mph 74% 0.00 in 0.00 W/m2
01:59 41.5 °F 33.8 °F 30.12 in WSW 9.2 mph 5.3 mph 74% 0.00 in 0.00 W/m2
02:04 41.5 °F 33.8 °F 30.12 in WSW 13.8 mph 6.3 mph 74% 0.00 in 0.00 W/m2
02:09 41.5 °F 33.8 °F 30.12 in West 10.4 mph 6.1 mph 74% 0.00 in 0.00 W/m2
02:14 41.4 °F 33.7 °F 30.12 in WSW 10.4 mph 5.7 mph 74% 0.00 in 0.00 W/m2
02:19 41.2 °F 33.5 °F 30.12 in WNW 11.5 mph 6.2 mph 74% 0.00 in 0.00 W/m2
02:24 41.0 °F 33.7 °F 30.13 in WSW 6.9 mph 4.0 mph 75% 0.00 in 0.00 W/m2
02:29 40.8 °F 33.5 °F 30.13 in WSW 10.4 mph 6.4 mph 75% 0.00 in 0.00 W/m2
02:34 40.7 °F 33.7 °F 30.13 in WSW 11.5 mph 5.0 mph 76% 0.00 in 0.00 W/m2
02:39 40.6 °F 33.6 °F 30.13 in SW 8.1 mph 5.2 mph 76% 0.00 in 0.00 W/m2
02:44 40.6 °F 33.6 °F 30.13 in WSW 11.5 mph 5.5 mph 76% 0.00 in 0.00 W/m2
02:49 40.6 °F 33.6 °F 30.13 in WSW 13.8 mph 6.0 mph 76% 0.00 in 0.00 W/m2
02:54 40.5 °F 33.5 °F 30.13 in SW 6.9 mph 4.4 mph 76% 0.00 in 0.00 W/m2
02:59 40.3 °F 33.7 °F 30.13 in WNW 10.4 mph 4.9 mph 77% 0.00 in 0.00 W/m2
03:04 40.2 °F 33.6 °F 30.14 in West 9.2 mph 3.7 mph 77% 0.00 in 0.00 W/m2
03:09 40.0 °F 33.4 °F 30.14 in WSW 5.8 mph 4.7 mph 77% 0.00 in 0.00 W/m2
03:14 39.8 °F 33.2 °F 30.14 in WSW 5.8 mph 2.4 mph 77% 0.00 in 0.00 W/m2
03:19 39.5 °F 33.2 °F 30.14 in West 4.6 mph 1.4 mph 78% 0.00 in 0.00 W/m2
03:24 39.3 °F 33.0 °F 30.14 in WNW 6.9 mph 5.1 mph 78% 0.00 in 0.00 W/m2
03:29 39.2 °F 32.9 °F 30.14 in West 8.0 mph 5.2 mph 78% 0.00 in 0.00 W/m2
03:34 39.2 °F 33.2 °F 30.14 in West 6.0 mph 4.8 mph 79% 0.00 in 0.00 W/m2
03:39 39.0 °F 33.0 °F 30.14 in WSW 6.9 mph 3.5 mph 79% 0.00 in 0.00 W/m2
03:44 38.8 °F 32.8 °F 30.15 in West 4.6 mph 4.0 mph 79% 0.00 in 0.00 W/m2
03:49 38.5 °F 32.6 °F 30.15 in WSW 5.8 mph 3.3 mph 79% 0.00 in 0.00 W/m2
03:54 38.3 °F 32.7 °F 30.15 in WSW 5.8 mph 3.0 mph 80% 0.00 in 0.00 W/m2
03:59 38.1 °F 32.5 °F 30.15 in West 3.5 mph 2.9 mph 80% 0.00 in 0.00 W/m2
04:04 38.0 °F 32.7 °F 30.16 in West 7.0 mph 3.1 mph 81% 0.00 in 0.00 W/m2
04:09 37.9 °F 32.6 °F 30.16 in WSW 5.8 mph 4.2 mph 81% 0.00 in 0.00 W/m2
04:14 37.9 °F 32.6 °F 30.16 in West 5.8 mph 2.7 mph 81% 0.00 in 0.00 W/m2
04:19 37.9 °F 32.6 °F 30.16 in WSW 5.8 mph 3.1 mph 81% 0.00 in 0.00 W/m2
04:24 37.9 °F 32.6 °F 30.16 in SW 8.1 mph 4.0 mph 81% 0.00 in 0.00 W/m2
04:29 38.0 °F 32.7 °F 30.17 in West 5.8 mph 1.7 mph 81% 0.00 in 0.00 W/m2
04:34 37.9 °F 32.6 °F 30.17 in WNW 3.5 mph 3.6 mph 81% 0.00 in 0.00 W/m2
04:39 38.1 °F 32.8 °F 30.17 in West 4.6 mph 2.8 mph 81% 0.00 in 0.00 W/m2
04:44 38.3 °F 33.0 °F 30.18 in WNW 6.0 mph 3.9 mph 81% 0.00 in 0.00 W/m2
04:49 38.4 °F 33.1 °F 30.18 in West 6.9 mph 2.6 mph 81% 0.00 in 0.00 W/m2
04:54 38.4 °F 32.8 °F 30.18 in West 3.5 mph 2.3 mph 80% 0.00 in 0.00 W/m2
04:59 38.5 °F 32.9 °F 30.19 in WNW 4.6 mph 3.7 mph 80% 0.00 in 0.00 W/m2
05:04 38.3 °F 32.7 °F 30.19 in West 5.8 mph 2.9 mph 80% 0.00 in 0.00 W/m2
05:09 38.1 °F 32.5 °F 30.19 in WSW 3.5 mph 2.9 mph 80% 0.00 in 0.00 W/m2
05:14 38.0 °F 32.4 °F 30.20 in WSW 3.5 mph 0.8 mph 80% 0.00 in 0.00 W/m2
05:19 37.7 °F 32.1 °F 30.20 in West 3.5 mph 0.9 mph 80% 0.00 in 0.00 W/m2
05:24 37.6 °F 32.3 °F 30.20 in WSW 3.5 mph 1.6 mph 81% 0.00 in 0.00 W/m2
05:29 37.6 °F 32.3 °F 30.20 in West 3.5 mph 1.1 mph 81% 0.00 in 0.00 W/m2
05:34 37.5 °F 32.2 °F 30.20 in WSW 3.5 mph 1.4 mph 81% 0.00 in 0.00 W/m2
05:39 37.3 °F 32.0 °F 30.20 in WSW 3.5 mph 1.7 mph 81% 0.00 in 0.00 W/m2
05:44 37.0 °F 31.7 °F 30.20 in WSW 3.5 mph 1.6 mph 81% 0.00 in 0.00 W/m2
05:49 36.9 °F 31.9 °F 30.20 in West 2.3 mph 0.6 mph 82% 0.00 in 0.00 W/m2
05:54 36.7 °F 31.7 °F 30.21 in West 3.0 mph 1.2 mph 82% 0.00 in 0.00 W/m2
05:59 36.7 °F 31.7 °F 30.21 in West 2.3 mph 1.1 mph 82% 0.00 in 0.00 W/m2
06:04 36.6 °F 31.6 °F 30.21 in WSW 3.5 mph 0.7 mph 82% 0.00 in 0.00 W/m2
06:09 36.5 °F 31.5 °F 30.21 in WSW 3.5 mph 0.8 mph 82% 0.00 in 0.00 W/m2
06:14 36.4 °F 31.4 °F 30.22 in West 2.3 mph 0.5 mph 82% 0.00 in 0.00 W/m2
06:19 36.4 °F 31.4 °F 30.23 in WNW 2.3 mph 0.5 mph 82% 0.00 in 0.00 W/m2
06:24 36.4 °F 31.4 °F 30.23 in WSW 4.0 mph 2.0 mph 82% 0.00 in 0.00 W/m2
06:29 36.3 °F 31.3 °F 30.23 in WSW 3.5 mph 2.1 mph 82% 0.00 in 0.00 W/m2
06:34 36.4 °F 31.4 °F 30.23 in WSW 2.3 mph 1.3 mph 82% 0.00 in 5.00 W/m2
06:39 36.2 °F 31.2 °F 30.23 in WSW 3.5 mph 2.4 mph 82% 0.00 in 9.00 W/m2
06:45 36.2 °F 31.2 °F 30.24 in WSW 3.5 mph 1.9 mph 82% 0.00 in 11.00 W/m2
06:49 36.1 °F 31.1 °F 30.24 in WSW 3.5 mph 2.0 mph 82% 0.00 in 14.00 W/m2
06:54 36.2 °F 31.5 °F 30.24 in WSW 3.5 mph 0.7 mph 83% 0.00 in 18.00 W/m2
06:59 36.4 °F 31.7 °F 30.25 in WSW 2.3 mph 1.3 mph 83% 0.00 in 25.00 W/m2
07:05 36.7 °F 32.0 °F 30.25 in WSW 3.5 mph 1.8 mph 83% 0.00 in 35.00 W/m2
07:09 36.9 °F 32.2 °F 30.25 in West 2.3 mph 1.6 mph 83% 0.00 in 46.00 W/m2
07:14 37.1 °F 32.4 °F 30.25 in WSW 3.5 mph 2.4 mph 83% 0.00 in 60.00 W/m2
07:19 37.4 °F 32.7 °F 30.25 in WSW 2.3 mph 2.5 mph 83% 0.00 in 76.00 W/m2
07:24 37.7 °F 32.7 °F 30.25 in WSW 3.5 mph 2.5 mph 82% 0.00 in 93.00 W/m2
07:29 38.0 °F 33.3 °F 30.25 in WSW 1.2 mph   83% 0.00 in 113.00 W/m2
07:34 38.4 °F 33.4 °F 30.25 in Calm     82% 0.00 in 132.00 W/m2
07:39 38.8 °F 33.5 °F 30.25 in Calm     81% 0.00 in 151.00 W/m2
07:44 39.2 °F 33.9 °F 30.26 in Calm     81% 0.00 in 171.00 W/m2
07:49 39.7 °F 34.0 °F 30.26 in Calm     80% 0.00 in 192.00 W/m2
07:54 40.2 °F 34.5 °F 30.26 in Calm     80% 0.00 in 216.00 W/m2
07:59 40.9 °F 34.6 °F 30.26 in WNW 1.2 mph   78% 0.00 in 237.00 W/m2
08:04 41.6 °F 34.9 °F 30.27 in Calm     77% 0.00 in 257.00 W/m2
08:10 42.2 °F 34.8 °F 30.27 in Calm     75% 0.00 in 274.00 W/m2
08:14 42.7 °F 35.0 °F 30.27 in NW 1.0 mph   74% 0.00 in 290.00 W/m2
08:19 43.2 °F 34.8 °F 30.27 in WNW 7.0 mph 4.8 mph 72% 0.00 in 309.00 W/m2
08:24 43.3 °F 34.9 °F 30.27 in WNW 6.9 mph 1.9 mph 72% 0.00 in 327.00 W/m2
08:29 43.4 °F 34.6 °F 30.27 in NW 8.1 mph 3.2 mph 71% 0.00 in 341.00 W/m2
08:34 43.6 °F 34.5 °F 30.27 in NW 1.2 mph 0.3 mph 70% 0.00 in 362.00 W/m2
08:39 44.1 °F 34.6 °F 30.28 in NW 5.8 mph 4.3 mph 69% 0.00 in 380.00 W/m2
08:44 44.5 °F 35.0 °F 30.27 in NW 3.5 mph   69% 0.00 in 397.00 W/m2
08:49 44.7 °F 34.0 °F 30.28 in Calm     66% 0.00 in 410.00 W/m2
08:54 45.2 °F 34.1 °F 30.28 in NW 5.0 mph 3.3 mph 65% 0.00 in 429.00 W/m2
08:59 45.4 °F 33.9 °F 30.28 in WNW 2.3 mph 3.2 mph 64% 0.00 in 445.00 W/m2
09:04 45.7 °F 33.4 °F 30.28 in WNW 5.8 mph 1.8 mph 62% 0.00 in 462.00 W/m2
09:09 46.0 °F 33.7 °F 30.28 in NW 6.9 mph 0.5 mph 62% 0.00 in 478.00 W/m2
09:14 46.1 °F 32.6 °F 30.29 in NNW 4.6 mph 2.0 mph 59% 0.00 in 492.00 W/m2
09:20 46.5 °F 33.8 °F 30.29 in Calm   0.4 mph 61% 0.00 in 508.00 W/m2
09:24 46.9 °F 32.0 °F 30.29 in WNW 1.2 mph 3.2 mph 56% 0.00 in 527.00 W/m2
09:30 47.2 °F 31.8 °F 30.29 in WNW 1.2 mph   55% 0.00 in 538.00 W/m2
09:34 47.3 °F 30.5 °F 30.30 in NNW 6.9 mph 0.3 mph 52% 0.00 in 554.00 W/m2
09:39 47.4 °F 30.6 °F 30.30 in West 5.0 mph 1.7 mph 52% 0.00 in 575.00 W/m2
09:44 47.6 °F 32.2 °F 30.30 in WNW 5.8 mph 2.5 mph 55% 0.00 in 582.00 W/m2
09:49 48.1 °F 33.1 °F 30.30 in Calm     56% 0.00 in 598.00 W/m2
09:55 48.4 °F 30.1 °F 30.30 in Calm     49% 0.00 in 613.00 W/m2
09:59 48.5 °F 29.7 °F 30.30 in Calm     48% 0.00 in 626.00 W/m2
10:04 49.0 °F 29.6 °F 30.30 in North 3.5 mph   47% 0.00 in 638.00 W/m2
10:09 49.2 °F 30.3 °F 30.31 in Calm     48% 0.00 in 656.00 W/m2
10:14 49.4 °F 28.9 °F 30.31 in Calm     45% 0.00 in 666.00 W/m2
10:19 49.6 °F 29.1 °F 30.31 in Calm     45% 0.00 in 677.00 W/m2
10:25 49.9 °F 28.8 °F 30.31 in Calm     44% 0.00 in 689.00 W/m2
10:29 50.3 °F 28.6 °F 30.31 in Calm     43% 0.00 in 698.00 W/m2
10:34 50.5 °F 28.2 °F 30.32 in Calm     42% 0.00 in 707.00 W/m2
10:39 50.6 °F 30.6 °F 30.31 in Calm     46% 0.00 in 721.00 W/m2
10:44 50.6 °F 27.7 °F 30.32 in Calm   0.1 mph 41% 0.00 in 729.00 W/m2
10:49 50.4 °F 28.1 °F 30.32 in Calm     42% 0.00 in 715.00 W/m2
10:54 50.8 °F 27.3 °F 30.32 in Calm     40% 0.00 in 749.00 W/m2
10:59 51.0 °F 27.5 °F 30.32 in Calm     40% 0.00 in 738.00 W/m2
11:04 51.6 °F 28.6 °F 30.32 in Calm     41% 0.00 in 763.00 W/m2
11:09 51.5 °F 27.9 °F 30.32 in Calm     40% 0.00 in 751.00 W/m2
11:14 51.9 °F 28.9 °F 30.32 in Calm     41% 0.00 in 798.00 W/m2
11:19 52.4 °F 28.8 °F 30.32 in Calm   0.4 mph 40% 0.00 in 814.00 W/m2
11:24 52.5 °F 28.2 °F 30.32 in WSW 3.5 mph 1.1 mph 39% 0.00 in 817.00 W/m2
11:29 52.7 °F 27.8 °F 30.32 in SSW 1.2 mph   38% 0.00 in 788.00 W/m2
11:34 53.2 °F 28.9 °F 30.32 in Calm     39% 0.00 in 786.00 W/m2
11:39 53.4 °F 29.0 °F 30.32 in Calm     39% 0.00 in 817.00 W/m2
11:44 53.8 °F 28.8 °F 30.32 in Calm     38% 0.00 in 821.00 W/m2
11:49 54.2 °F 29.8 °F 30.31 in SSE 1.0 mph 0.9 mph 39% 0.00 in 817.00 W/m2
11:54 54.6 °F 29.5 °F 30.31 in SE 3.5 mph   38% 0.00 in 768.00 W/m2
11:59 54.7 °F 28.9 °F 30.31 in WSW 4.6 mph 2.3 mph 37% 0.00 in 863.00 W/m2
12:04 54.7 °F 28.2 °F 30.31 in SSW 3.5 mph 4.6 mph 36% 0.00 in 802.00 W/m2
12:09 54.7 °F 26.8 °F 30.31 in SSW 3.5 mph 1.9 mph 34% 0.00 in 791.00 W/m2
12:14 54.8 °F 26.9 °F 30.31 in South 9.0 mph 3.6 mph 34% 0.00 in 802.00 W/m2
12:19 54.7 °F 28.2 °F 30.31 in SW 6.9 mph 3.6 mph 36% 0.00 in 788.00 W/m2
12:24 54.8 °F 27.6 °F 30.31 in WSW 6.9 mph 4.7 mph 35% 0.00 in 770.00 W/m2
12:29 55.0 °F 28.5 °F 30.30 in South 6.9 mph 2.9 mph 36% 0.00 in 854.00 W/m2
12:34 55.0 °F 27.1 °F 30.30 in WSW 13.8 mph 6.1 mph 34% 0.00 in 833.00 W/m2
12:39 55.3 °F 30.7 °F 30.30 in WSW 5.8 mph 4.4 mph 39% 0.00 in 816.00 W/m2
12:44 55.5 °F 28.3 °F 30.30 in West 6.9 mph 4.2 mph 35% 0.00 in 851.00 W/m2
12:49 56.0 °F 30.7 °F 30.30 in West 6.9 mph 4.8 mph 38% 0.00 in 712.00 W/m2
12:54 56.2 °F 29.6 °F 30.30 in WSW 12.7 mph 5.7 mph 36% 0.00 in 849.00 W/m2
12:59 56.0 °F 30.1 °F 30.30 in SW 7.0 mph 4.9 mph 37% 0.00 in 870.00 W/m2
13:04 56.3 °F 30.3 °F 30.30 in SW 8.0 mph 5.2 mph 37% 0.00 in 861.00 W/m2
13:09 56.8 °F 31.4 °F 30.30 in West 11.5 mph 6.1 mph 38% 0.00 in 930.00 W/m2
13:14 56.7 °F 31.4 °F 30.30 in SW 12.7 mph 6.4 mph 38% 0.00 in 490.00 W/m2
13:19 56.7 °F 32.0 °F 30.29 in SSW 9.2 mph 5.2 mph 39% 0.00 in 599.00 W/m2
13:24 56.9 °F 32.2 °F 30.29 in WSW 9.2 mph 4.3 mph 39% 0.00 in 661.00 W/m2
13:29 57.3 °F 32.5 °F 30.29 in SSE 8.0 mph 6.0 mph 39% 0.00 in 513.00 W/m2
13:34 57.1 °F 32.4 °F 30.29 in WSW 10.4 mph 4.0 mph 39% 0.00 in 670.00 W/m2
13:39 57.5 °F 34.0 °F 30.29 in WSW 5.0 mph 4.1 mph 41% 0.00 in 603.00 W/m2
13:44 57.5 °F 33.3 °F 30.28 in South 7.0 mph 4.4 mph 40% 0.00 in 606.00 W/m2
13:49 57.6 °F 32.8 °F 30.28 in WSW 11.5 mph 8.1 mph 39% 0.00 in 554.00 W/m2
13:55 57.6 °F 33.4 °F 30.28 in WSW 7.0 mph 3.3 mph 40% 0.00 in 617.00 W/m2
13:59 57.8 °F 34.2 °F 30.28 in SW 5.8 mph 2.6 mph 41% 0.00 in 666.00 W/m2
14:04 58.4 °F 34.2 °F 30.28 in WSW 10.4 mph 7.4 mph 40% 0.00 in 570.00 W/m2
14:09 58.8 °F 33.2 °F 30.27 in West 8.1 mph 6.2 mph 38% 0.00 in 654.00 W/m2
14:14 58.9 °F 33.3 °F 30.27 in West 8.1 mph 6.6 mph 38% 0.00 in 550.00 W/m2
14:20 58.5 °F 33.6 °F 30.27 in West 13.8 mph 9.5 mph 39% 0.00 in 427.00 W/m2
14:24 57.9 °F 33.1 °F 30.27 in West 9.2 mph 5.2 mph 39% 0.00 in 401.00 W/m2
14:29 58.0 °F 33.8 °F 30.27 in West 9.2 mph 2.4 mph 40% 0.00 in 445.00 W/m2
14:34 58.1 °F 33.2 °F 30.27 in WSW 11.5 mph 5.9 mph 39% 0.00 in 417.00 W/m2
14:39 58.3 °F 33.4 °F 30.27 in SW 7.0 mph 6.3 mph 39% 0.00 in 288.00 W/m2
14:44 58.2 °F 34.0 °F 30.27 in West 10.4 mph 7.6 mph 40% 0.00 in 308.00 W/m2
14:49 58.1 °F 33.2 °F 30.26 in West 9.0 mph 6.0 mph 39% 0.00 in 229.00 W/m2
14:54 58.0 °F 34.4 °F 30.26 in SSW 5.8 mph 5.1 mph 41% 0.00 in 265.00 W/m2
14:59 58.0 °F 33.8 °F 30.26 in SW 5.8 mph 4.4 mph 40% 0.00 in 246.00 W/m2
15:04 57.8 °F 33.6 °F 30.26 in WSW 12.7 mph 7.2 mph 40% 0.00 in 274.00 W/m2
15:09 57.8 °F 33.6 °F 30.26 in SW 9.2 mph 5.8 mph 40% 0.00 in 323.00 W/m2
15:14 57.8 °F 34.2 °F 30.27 in SW 8.1 mph 4.9 mph 41% 0.00 in 348.00 W/m2
15:19 58.0 °F 34.4 °F 30.27 in WSW 8.1 mph 7.0 mph 41% 0.00 in 406.00 W/m2
15:24 58.1 °F 33.2 °F 30.26 in West 10.4 mph 4.4 mph 39% 0.00 in 301.00 W/m2
15:29 58.1 °F 33.9 °F 30.26 in SW 9.2 mph 4.4 mph 40% 0.00 in 352.00 W/m2
15:34 58.1 °F 33.2 °F 30.26 in WNW 8.1 mph 3.4 mph 39% 0.00 in 369.00 W/m2
15:39 58.4 °F 34.2 °F 30.26 in SSW 11.5 mph 5.4 mph 40% 0.00 in 418.00 W/m2
15:44 58.8 °F 34.5 °F 30.27 in WNW 11.5 mph 5.6 mph 40% 0.00 in 406.00 W/m2
15:49 58.7 °F 35.0 °F 30.27 in SSW 4.0 mph 4.0 mph 41% 0.00 in 387.00 W/m2
15:54 58.9 °F 34.6 °F 30.27 in SW 10.4 mph 7.1 mph 40% 0.00 in 369.00 W/m2
15:59 58.8 °F 33.9 °F 30.27 in WSW 13.8 mph 7.9 mph 39% 0.00 in 359.00 W/m2
16:04 58.6 °F 34.3 °F 30.27 in West 12.7 mph 5.9 mph 40% 0.00 in 438.00 W/m2
16:10 58.8 °F 35.1 °F 30.27 in SW 7.0 mph 3.8 mph 41% 0.00 in 378.00 W/m2
16:14 59.1 °F 35.4 °F 30.27 in WSW 10.0 mph 4.9 mph 41% 0.00 in 346.00 W/m2
16:19 58.8 °F 33.9 °F 30.27 in SSW 10.4 mph 5.7 mph 39% 0.00 in 343.00 W/m2
16:24 58.5 °F 34.2 °F 30.27 in WSW 8.1 mph 6.1 mph 40% 0.00 in 290.00 W/m2
16:29 58.6 °F 34.3 °F 30.27 in WSW 8.1 mph 5.0 mph 40% 0.00 in 223.00 W/m2
16:34 58.3 °F 33.4 °F 30.27 in SW 16.1 mph 7.8 mph 39% 0.00 in 271.00 W/m2
16:39 58.3 °F 34.1 °F 30.27 in West 6.9 mph 4.1 mph 40% 0.00 in 243.00 W/m2
16:44 58.3 °F 34.1 °F 30.26 in SW 6.9 mph 5.4 mph 40% 0.00 in 216.00 W/m2
16:49 58.2 °F 34.6 °F 30.26 in WSW 11.5 mph 5.4 mph 41% 0.00 in 192.00 W/m2
16:54 58.0 °F 34.4 °F 30.26 in WSW 11.5 mph 4.4 mph 41% 0.00 in 179.00 W/m2
16:59 57.9 °F 34.3 °F 30.26 in WSW 9.2 mph 4.0 mph 41% 0.00 in 169.00 W/m2
17:04 57.9 °F 34.3 °F 30.26 in West 4.6 mph 3.9 mph 41% 0.00 in 162.00 W/m2
17:09 57.9 °F 33.1 °F 30.26 in West 5.8 mph 3.5 mph 39% 0.00 in 149.00 W/m2
17:14 57.8 °F 33.6 °F 30.26 in West 8.1 mph 4.6 mph 40% 0.00 in 134.00 W/m2
17:19 57.8 °F 34.2 °F 30.26 in West 4.6 mph 3.0 mph 41% 0.00 in 121.00 W/m2
17:24 57.7 °F 34.1 °F 30.26 in SW 9.2 mph 3.9 mph 41% 0.00 in 107.00 W/m2
17:29 57.5 °F 34.0 °F 30.26 in WSW 5.0 mph 3.0 mph 41% 0.00 in 95.00 W/m2
17:34 57.4 °F 33.9 °F 30.26 in West 4.6 mph 2.9 mph 41% 0.00 in 90.00 W/m2
17:39 57.4 °F 34.5 °F 30.26 in West 4.6 mph 2.8 mph 42% 0.00 in 79.00 W/m2
17:44 57.3 °F 34.4 °F 30.26 in SW 3.5 mph 2.2 mph 42% 0.00 in 70.00 W/m2
17:49 57.3 °F 35.0 °F 30.26 in WSW 5.0 mph 2.0 mph 43% 0.00 in 63.00 W/m2
17:54 57.2 °F 34.3 °F 30.26 in SW 6.9 mph 2.0 mph 42% 0.00 in 58.00 W/m2
17:59 57.2 °F 34.3 °F 30.26 in WSW 4.6 mph 1.9 mph 42% 0.00 in 49.00 W/m2
18:05 57.1 °F 34.8 °F 30.26 in WSW 1.2 mph 0.2 mph 43% 0.00 in 44.00 W/m2
18:09 57.0 °F 34.7 °F 30.26 in WSW 6.9 mph 3.8 mph 43% 0.00 in 40.00 W/m2
18:14 56.9 °F 34.6 °F 30.26 in SW 8.0 mph 5.5 mph 43% 0.00 in 33.00 W/m2
18:20 56.8 °F 33.9 °F 30.26 in WSW 4.6 mph 2.3 mph 42% 0.00 in 28.00 W/m2
18:24 56.6 °F 33.2 °F 30.27 in WSW 5.8 mph 4.1 mph 41% 0.00 in 25.00 W/m2
18:29 56.5 °F 33.7 °F 30.27 in WNW 6.9 mph 3.1 mph 42% 0.00 in 21.00 W/m2
18:34 56.4 °F 33.6 °F 30.27 in SW 4.0 mph 4.3 mph 42% 0.00 in 16.00 W/m2
18:39 56.1 °F 33.9 °F 30.27 in WNW 7.0 mph 4.0 mph 43% 0.00 in 12.00 W/m2
18:45 55.9 °F 33.1 °F 30.27 in SW 3.5 mph 1.7 mph 42% 0.00 in 11.00 W/m2
18:49 55.8 °F 33.6 °F 30.27 in NW 3.5 mph 0.7 mph 43% 0.00 in 7.00 W/m2
18:54 55.7 °F 34.1 °F 30.27 in WSW 8.1 mph 6.2 mph 44% 0.00 in 5.00 W/m2
18:59 55.4 °F 34.4 °F 30.27 in SSW 5.8 mph 1.2 mph 45% 0.00 in 0.00 W/m2
19:04 55.1 °F 34.7 °F 30.27 in SE 6.0 mph 1.2 mph 46% 0.00 in 0.00 W/m2
19:09 54.9 °F 33.9 °F 30.27 in WSW 6.9 mph 3.6 mph 45% 0.00 in 0.00 W/m2
19:14 54.9 °F 33.9 °F 30.28 in WSW 12.7 mph 3.1 mph 45% 0.00 in 0.00 W/m2
19:19 54.9 °F 33.9 °F 30.28 in SW 5.0 mph 2.0 mph 45% 0.00 in 0.00 W/m2
19:25 54.7 °F 34.8 °F 30.29 in West 9.2 mph 4.2 mph 47% 0.00 in 0.00 W/m2
19:29 54.5 °F 35.2 °F 30.29 in South 11.5 mph 2.5 mph 48% 0.00 in 0.00 W/m2
19:34 54.2 °F 35.4 °F 30.29 in WNW 2.0 mph 0.7 mph 49% 0.00 in 0.00 W/m2
19:39 54.1 °F 34.8 °F 30.29 in NW 2.3 mph 0.2 mph 48% 0.00 in 0.00 W/m2
19:44 54.0 °F 35.8 °F 30.30 in Calm     50% 0.00 in 0.00 W/m2
19:49 53.8 °F 36.1 °F 30.30 in WNW 6.9 mph 2.7 mph 51% 0.00 in 0.00 W/m2
19:54 53.6 °F 35.9 °F 30.30 in NW 3.5 mph 2.0 mph 51% 0.00 in 0.00 W/m2
19:59 53.4 °F 36.7 °F 30.31 in NNW 5.8 mph 3.5 mph 53% 0.00 in 0.00 W/m2
20:05 53.0 °F 37.3 °F 30.31 in West 3.5 mph 2.2 mph 55% 0.00 in 0.00 W/m2
20:09 52.8 °F 37.5 °F 30.32 in WNW 3.5 mph 1.2 mph 56% 0.00 in 0.00 W/m2
20:14 52.7 °F 36.5 °F 30.32 in NNW 3.5 mph 1.7 mph 54% 0.00 in 0.00 W/m2
20:19 52.7 °F 37.4 °F 30.32 in NW 4.6 mph 2.5 mph 56% 0.00 in 0.00 W/m2
20:24 52.4 °F 38.0 °F 30.33 in WNW 1.2 mph 0.3 mph 58% 0.00 in 0.00 W/m2
20:30 52.1 °F 38.2 °F 30.33 in WNW 1.2 mph 0.2 mph 59% 0.00 in 0.00 W/m2
20:34 51.9 °F 38.4 °F 30.33 in SW 3.5 mph 0.8 mph 60% 0.00 in 0.00 W/m2
20:39 51.7 °F 38.3 °F 30.33 in Calm     60% 0.00 in 0.00 W/m2
20:45 51.6 °F 38.6 °F 30.33 in Calm     61% 0.00 in 0.00 W/m2
20:49 51.5 °F 38.5 °F 30.33 in WNW 2.3 mph 1.0 mph 61% 0.00 in 0.00 W/m2
20:54 51.4 °F 38.8 °F 30.33 in West 1.2 mph   62% 0.00 in 0.00 W/m2
20:59 51.3 °F 38.7 °F 30.33 in Calm     62% 0.00 in 0.00 W/m2
21:04 51.1 °F 38.5 °F 30.33 in Calm     62% 0.00 in 0.00 W/m2
21:09 50.9 °F 38.7 °F 30.33 in Calm     63% 0.00 in 0.00 W/m2
21:14 50.6 °F 38.9 °F 30.33 in Calm     64% 0.00 in 0.00 W/m2
21:19 50.5 °F 38.8 °F 30.33 in Calm     64% 0.00 in 0.00 W/m2
21:25 49.9 °F 39.4 °F 30.33 in North 3.5 mph 1.8 mph 67% 0.00 in 0.00 W/m2
21:29 49.6 °F 39.5 °F 30.33 in North 1.2 mph   68% 0.00 in 0.00 W/m2
21:35 49.4 °F 39.7 °F 30.33 in Calm     69% 0.00 in 0.00 W/m2
21:39 48.8 °F 39.1 °F 30.31 in NE 3.0 mph 2.4 mph 69% 0.00 in 0.00 W/m2
21:44 48.1 °F 39.9 °F 30.32 in NE 3.5 mph 0.4 mph 73% 0.00 in 0.00 W/m2
21:49 47.7 °F 40.2 °F 30.32 in Calm     75% 0.00 in 0.00 W/m2
21:54 47.3 °F 39.8 °F 30.32 in Calm     75% 0.00 in 0.00 W/m2
21:59 47.1 °F 39.6 °F 30.32 in Calm     75% 0.00 in 0.00 W/m2
22:04 46.9 °F 39.7 °F 30.32 in Calm     76% 0.00 in 0.00 W/m2
22:09 46.8 °F 40.0 °F 30.32 in Calm     77% 0.00 in 0.00 W/m2
22:14 46.6 °F 39.8 °F 30.31 in Calm     77% 0.00 in 0.00 W/m2
22:19 46.5 °F 39.7 °F 30.32 in Calm     77% 0.00 in 0.00 W/m2
22:24 46.3 °F 39.8 °F 30.32 in Calm     78% 0.00 in 0.00 W/m2
22:29 46.1 °F 39.6 °F 30.31 in Calm     78% 0.00 in 0.00 W/m2
22:34 45.9 °F 39.8 °F 30.31 in Calm     79% 0.00 in 0.00 W/m2
22:39 45.6 °F 39.5 °F 30.31 in NE 1.0 mph 0.2 mph 79% 0.00 in 0.00 W/m2
22:44 45.4 °F 39.6 °F 30.30 in ENE 3.5 mph 1.4 mph 80% 0.00 in 0.00 W/m2
22:49 45.3 °F 39.5 °F 30.30 in ENE 1.2 mph   80% 0.00 in 0.00 W/m2
22:54 45.4 °F 39.6 °F 30.30 in Calm     80% 0.00 in 0.00 W/m2
22:59 45.4 °F 39.6 °F 30.30 in Calm     80% 0.00 in 0.00 W/m2
23:04 45.4 °F 39.6 °F 30.31 in Calm     80% 0.00 in 0.00 W/m2
23:09 45.6 °F 39.8 °F 30.31 in ENE 1.2 mph 0.4 mph 80% 0.00 in 0.00 W/m2
23:14 45.9 °F 39.8 °F 30.31 in ENE 1.2 mph   79% 0.00 in 0.00 W/m2
23:19 46.0 °F 39.5 °F 30.31 in Calm     78% 0.00 in 0.00 W/m2
23:24 46.0 °F 39.5 °F 30.32 in Calm     78% 0.00 in 0.00 W/m2
23:29 46.3 °F 39.8 °F 30.32 in Calm     78% 0.00 in 0.00 W/m2
23:34 46.5 °F 39.7 °F 30.33 in Calm     77% 0.00 in 0.00 W/m2
23:39 46.7 °F 40.2 °F 30.33 in Calm     78% 0.00 in 0.00 W/m2
23:44 46.5 °F 40.0 °F 30.33 in Calm     78% 0.00 in 0.00 W/m2
23:49 46.2 °F 40.4 °F 30.33 in Calm     80% 0.00 in 0.00 W/m2
23:54 45.9 °F 40.4 °F 30.33 in NNE 1.2 mph   81% 0.00 in 0.00 W/m2
23:59 45.8 °F 40.3 °F 30.33 in Calm     81% 0.00 in 0.00 W/m2
Bourbonnais, Illinois, USA
Compliments of Weather Underground - 4 mb